Regional Weather Roundup
Issued by NWS

Home | Current Version | Previous Version | Text Only | Print | Product List | Glossary Off
Versions: 1 2 3 4 5 6 7 8 9 10 11 12 13 14 15 16 17 18 19 20 21 22 23 24 25 26 27 28 29 30 31 32 33 34 35 36 37 38 39 40 41 42 43 44 45 46 47 48 49 50

000
ASUS43 KOAX 290002
RWRNE

WEATHER ROUNDUP FOR NEBRASKA
NATIONAL WEATHER SERVICE OMAHA NE
600 PM CST FRI NOV 28 2014

NOTES: SATELLITE DATA IS BEING USED TO AUGMENT CLOUD COVER ABOVE
       12000 FEET.
       "FAIR" INDICATES FEW OR NO CLOUDS BELOW 12,000 FEET WITH NO
       SIGNIFICANT WEATHER AND/OR OBSTRUCTIONS TO VISIBILITY.

  * THESE STATIONS DO NOT REPORT WEATHER SUCH AS RAIN...SNOW OR FOG.

NEZ001>004-019>022-054>056-290100-
NEBRASKA PANHANDLE

CITY           SKY/WX    TMP DP  RH WIND       PRES   REMARKS
SCOTTSBLUFF    MOCLDY    51  23  33 CALM      29.73R
6HR MIN TEMP:  49; 6HR MAX TEMP:  66;

ALLIANCE       MOCLDY    47  20  34 S10       29.71R
6HR MIN TEMP:  47; 6HR MAX TEMP:  68;

CHADRON        PTCLDY   N/A N/A N/A SW13      29.64S
SIDNEY         CLOUDY    52  21  29 W13       29.77S
6HR MIN TEMP:  46; 6HR MAX TEMP:  67;

$$

NEZ057>060-069>072-079>082-290100-
SOUTHWEST NEBRASKA

CITY           SKY/WX    TMP DP  RH WIND       PRES   REMARKS
NORTH PLATTE   MOCLDY    52  22  30 NW5       29.70S
6HR MIN TEMP:  49; 6HR MAX TEMP:  73;

IMPERIAL       MOCLDY    55  18  23 W3        29.73F
6HR MIN TEMP:  55; 6HR MAX TEMP:  74;

LEXINGTON      CLOUDY    58  19  22 W10       29.69S
MCCOOK         MOCLDY    67  10  11 NW7       29.71S
6HR MIN TEMP:  64; 6HR MAX TEMP:  78;

$$

NEZ005>010-023>029-035>040-094-290100-
NORTH CENTRAL NEBRASKA

CITY           SKY/WX    TMP DP  RH WIND       PRES   REMARKS
VALENTINE      MOCLDY    47  26  44 S7        29.61F
6HR MIN TEMP:  44; 6HR MAX TEMP:  66;

AINSWORTH      CLOUDY    46  28  48 S6        29.62S
BROKEN BOW     MOCLDY    53  22  29 SW9       29.66S
6HR MIN TEMP:  49; 6HR MAX TEMP:  73;

ORD            MOCLDY    52  22  30 NW5       29.63S
6HR MIN TEMP:  48; 6HR MAX TEMP:  73;

$$

NEZ041-046>049-061>064-073>077-083>087-290100-
SOUTH CENTRAL NEBRASKA

CITY           SKY/WX    TMP DP  RH WIND       PRES   REMARKS
GRAND ISLAND   CLOUDY    55  26  32 W9        29.66R
6HR MIN TEMP:  55; 6HR MAX TEMP:  70;

AURORA         CLOUDY    56  28  34 SW10      29.65S
HASTINGS       CLOUDY    59  23  25 SW7       29.66F
6HR MIN TEMP:  58; 6HR MAX TEMP:  74;

KEARNEY *      CLOUDY    63  19  19 SW10      29.69S
YORK           CLOUDY    52  34  50 S10       29.65S
$$

NEZ011>018-030>034-042>045-290100-
NORTHEAST NEBRASKA

CITY           SKY/WX    TMP DP  RH WIND       PRES   REMARKS
NORFOLK        CLOUDY    46  31  55 NE5       29.62R
6HR MIN TEMP:  46; 6HR MAX TEMP:  66;

BLAIR          CLEAR     47  32  54 SE8       29.67S
COLUMBUS *     CLOUDY    52  30  43 CALM      29.63F
TEKAMAH        PTCLDY    42  29  59 SE13      29.66F
6HR MIN TEMP:  42; 6HR MAX TEMP:  54;

$$

NEZ050>053-065>068-078-088>093-290100-
SOUTHEAST NEBRASKA

CITY           SKY/WX    TMP DP  RH WIND       PRES   REMARKS
LINCOLN        MOCLDY    49  30  48 SE5       29.67S
6HR MIN TEMP:  46; 6HR MAX TEMP:  62;

OMAHA EPPLEY   MOCLDY    42  30  62 SE8       29.70R
6HR MIN TEMP:  41; 6HR MAX TEMP:  52;

FALLS CITY     PTCLDY    47  32  56 SE9       29.72R
6HR MIN TEMP:  46; 6HR MAX TEMP:  60;

NEBRASKA CITY  PTCLDY    50  27  41 S15       29.68F
PLATTSMOUTH    MOCLDY    47  30  50 SE7       29.68S
$$

NEZ044-045-051>053-067-290100-
OMAHA AREA

CITY           SKY/WX    TMP DP  RH WIND       PRES   REMARKS
OMAHA EPPLEY   MOCLDY    42  30  62 SE8       29.70R
6HR MIN TEMP:  41; 6HR MAX TEMP:  52;

BLAIR          CLEAR     47  32  54 SE8       29.67S
OFFUTT AFB     PTCLDY    37  29  73 E5        29.68S WCI  33
PLATTSMOUTH    MOCLDY    47  30  50 SE7       29.68S
$$



USA.gov is the U.S. government's official web portal to all federal, state and local government web resources and services.